Tracking 28790 objects as of 19-Apr-2024
HD Live streaming from Space Station
objects crossing your sky now

IRIDIUM 33 DEB

Track IRIDIUM 33 DEB now!
10-day predictions


NORAD ID: 34926
Int'l Code: 1997-051NF
Perigee: 705.5 km
Apogee: 915.2 km
Inclination: 86.1 °
Period: 100.9 minutes
Semi major axis: 7181 km
RCS: 0.0118 m2 (small)
Launch date: September 14, 1997
Source: United States (US)
Launch site: TYURATAM MISSILE AND SPACE COMPLEX (TTMTR)

Note: This is SATELLITE DEBRIS
Your satellite tracking list
Your tracking list is empty




NASA's NSSDC Master Catalog

Two Line Element Set (TLE):
1 34926U 97051NF  24110.44880219  .00028481  00000-0  10508-1 0  9998
2 34926  86.1443 280.5752 0146052 108.5472 282.6413 14.26573586778416
Source of the keplerian elements: AFSPC